This is the latest recevied weather packets stored in our database for station/object KI4NG. If no packets are shown the sender has not sent any weather packets the latest 10 day(s).
| Time | Temp. | Humidity | Pressure | Rain* | Wind** | Luminosity | Snow |
|---|---|---|---|---|---|---|---|
| 1788448809 | 32.22° C | 62% | 1021.4 hPa | 0 mm | - | 638 W/m² | - |
| 1788448508 | 31.67° C | 65% | 1021.2 hPa | 0 mm | - | 632 W/m² | - |
| 1788448202 | 31.67° C | 64% | 1021.5 hPa | 0 mm | - | 644 W/m² | - |
| 1788447897 | 31.67° C | 63% | 1021.4 hPa | 0 mm | - | 627 W/m² | - |
| 1788447592 | 31.67° C | 66% | 1021.4 hPa | 0 mm | - | 614 W/m² | - |
| 1788447287 | 31.11° C | 67% | 1021.3 hPa | 0 mm | - | 623 W/m² | - |
| 1788446982 | 30.56° C | 68% | 1021.2 hPa | 0 mm | - | 592 W/m² | - |
| 1788446681 | 30° C | 72% | 1021.2 hPa | 0 mm | - | 587 W/m² | - |
| 1788446377 | 30° C | 72% | 1021.2 hPa | 0 mm | - | 566 W/m² | - |
| 1788446074 | 30° C | 74% | 1021.3 hPa | 0 mm | - | 534 W/m² | - |
| 1788445769 | 29.44° C | 74% | 1021.4 hPa | 0 mm | - | 542 W/m² | - |
| 1788445465 | 29.44° C | 75% | 1021.3 hPa | 0 mm | - | 510 W/m² | - |
| 1788445161 | 29.44° C | 76% | 1021.3 hPa | 0 mm | - | 474 W/m² | - |
| 1788444856 | 29.44° C | 76% | 1021 hPa | 0 mm | - | 416 W/m² | - |
| 1788444552 | 28.89° C | 79% | 1021.3 hPa | 0 mm | - | 383 W/m² | - |
| 1788444247 | 28.89° C | 78% | 1021.2 hPa | 0 mm | - | 379 W/m² | - |
| 1788443942 | 28.89° C | 78% | 1021 hPa | 0 mm | - | 350 W/m² | - |
| 1788443638 | 28.33° C | 79% | 1021.2 hPa | 0 mm | - | 310 W/m² | - |
| 1788443336 | 27.78° C | 80% | 1021.2 hPa | 0 mm | - | 318 W/m² | - |
| 1788443032 | 27.78° C | 82% | 1021.2 hPa | 0 mm | - | 306 W/m² | - |
| 1788442729 | 27.22° C | 83% | 1021.3 hPa | 0 mm | - | 108 W/m² | - |
| 1788442426 | 27.22° C | 84% | 1021.2 hPa | 0 mm | - | 75 W/m² | - |
| 1788442125 | 26.67° C | 86% | 1021.5 hPa | 0 mm | - | 239 W/m² | - |
| 1788441816 | 26.11° C | 87% | 1021.4 hPa | 0 mm | - | 70 W/m² | - |
| 1788441516 | 25.56° C | 87% | 1021.4 hPa | 0 mm | - | 70 W/m² | - |
* Rain latest hour (hover to see other rain measurements)
** Current wind speed in m/s (hover to see current wind gust speed)